User: anonymous   Login
Location: Arcueil
(48.7999°N, 2.3326°E)
Time: 01:03:13
(UTC+00:00)
Language:

SJ-6B - Orbit

View from above orbital plane
View from above orbital plane
View from above satellite
View from above satellite

Ground track
Ground track

The orbit data is extracted from the following two-line orbital elements,

1 28415U 04035C   23154.59251243  .00003881  00000-0  23143-3 0  9994
2 28415  97.4691 192.0248 0045668 254.2702 105.3488 15.10875524 26561
Epoch (UTC): 03 June 2023 14:13:13
Eccentricity: 0.0045668
inclination: 97.4691°
perigee height: 502 km
apogee height: 565 km
right ascension of ascending node: 192.0248°
argument of perigee: 254.2702°
revolutions per day: 15.10875524
mean anomaly at epoch: 105.3488°
orbit number at epoch: 2656

The dashed part of the orbit path shows where the satellite is in the earth's shadow,  

DLR